Flag for China Weather past 2 weeks in Changsha, Hunan, China

Now
90 °F

Sunny.


Feels Like: 100 °F
Forecast: 79 / 93 °F
Wind: 1 mph from North

Location: Changsha

Current Time: Jul 31, 2014 at 10:07:48 AM

Latest Report: Jul 31, 2014 at 9:00 AM


Visibility: 10 mi

Pressure: 29.65 "Hg

Humidity: 63%

Dew point: 75 °F

Location of ChangshaLocation

Historic Weather in Changsha — Graph

°F

Changsha temperature yesterday

Maximum temperature yesterday: 100 °F (at 3:00 PM)
Minimum temperature yesterday: 79 °F (at 4:00 AM)
Average temperature yesterday: 88 °F

Past Weeks' High & Low Weather Summary

 TemperatureHumidityPressure
High100 °F (Jul 30, 3:00 PM)94% (Jul 18, 3:00 AM)29.86 "Hg (Jul 18, 3:00 AM)
Low75 °F (Jul 18, 8:00 PM)35% (Jul 30, 3:00 PM)29.45 "Hg (Jul 23, 5:00 PM)
Average85 °F73%29.68 "Hg
* Reported Jul 16 8:00 AM — Jul 31 8:00 AM, Changsha, Weather by CustomWeather, © 2014

Note: Actual official high and low records may vary slightly from our data, if they occured in-between our weather recording intervals... More about our weather records

Advertising

Changsha weather history for previous 24 hours

 ConditionsComfort  
Time TempWeatherWind HumidityBarometerVisibility
8:00 AM
Jul 31
84 °FClear.1 mph74%29.62 "Hg6 mi
7:00 AM81 °FClear.1 mph84%29.62 "Hg4 mi
6:00 AM79 °FFog.1 mph89%29.62 "Hg3 mi
5:00 AM79 °FFog.No wind89%29.62 "Hg3 mi
4:00 AM81 °FClear.1 mph84%29.62 "Hg4 mi
3:00 AM81 °FClear.1 mph84%29.62 "Hg4 mi
2:00 AM81 °FClear.1 mph84%29.62 "Hg5 mi
1:00 AM82 °FClear.1 mph79%29.62 "Hg10 mi
12:00 AM82 °FClear.1 mph84%29.62 "Hg10 mi
11:00 PM
Jul 30
84 °FClear.1 mph74%29.62 "Hg10 mi
10:00 PM86 °FClear.1 mph75%29.62 "Hg10 mi
9:00 PM88 °FClear.1 mph70%29.59 "Hg10 mi
8:00 PM90 °FClear.1 mph67%29.59 "Hg10 mi
7:00 PM91 °FPassing clouds.3 mph59%29.59 "HgN/A
6:00 PM95 °FPassing clouds.3 mph50%29.56 "HgN/A
5:00 PM97 °FPassing clouds.6 mph44%29.56 "HgN/A
4:00 PM97 °FScattered clouds.6 mph44%29.59 "HgN/A
3:00 PM100 °FScattered clouds.6 mph35%29.62 "HgN/A
2:00 PM99 °FScattered clouds.8 mph37%29.62 "HgN/A
1:00 PM97 °FPassing clouds.8 mph44%29.65 "HgN/A
12:00 PM95 °FPassing clouds.8 mph50%29.68 "HgN/A
11:00 AM93 °FPassing clouds.6 mph53%29.68 "HgN/A
10:00 AM91 °FPassing clouds.6 mph56%29.71 "HgN/A
Weather by CustomWeather, © 2014

See weather overviewHow to use our weather pages